User: anonymous   Login
Location: Morlupo
(42.1333°N, 12.5000°E)
Time: 08:51:52
(UTC+00:00)
Language:

CZ-6A DEB - Orbit

View from above orbital plane
View from above orbital plane
View from above satellite
View from above satellite

Ground track
Ground track

The orbit data is extracted from the following two-line orbital elements,

1 54323U 22151BS  23336.00518194  .00002023  00000-0  12106-2 0  9992
2 54323  98.8118 336.2140 0056307  66.3882 294.3185 14.07406255 53595
Epoch (UTC): 02 December 2023 00:07:27
Eccentricity: 0.0056307
inclination: 98.8118°
perigee height: 827 km
apogee height: 909 km
right ascension of ascending node: 336.2140°
argument of perigee: 66.3882°
revolutions per day: 14.07406255
mean anomaly at epoch: 294.3185°
orbit number at epoch: 5359

The dashed part of the orbit path shows where the satellite is in the earth's shadow,  

DLR